Weather History for KGRI - March, 2013

Change the Weather History Date:

Friday, March 15, 2013

  Actual Average Record
Temperature  
Mean Temperature 57 °F 39 °F  
Max Temperature 74 °F 51 °F 86 °F (1935)
Min Temperature 40 °F 27 °F -7 °F (1949)
Degree Days  
Heating Degree Days 8 26  
Month to date heating degree days 435 430  
Since 1 July heating degree days 4904 5191  
Cooling Degree Days 0 0  
Month to date cooling degree days 0 0  
Year to date cooling degree days 0 0  
Growing Degree Days 9 (Base 50)    
Moisture  
Dew Point 38 °F    
Average Humidity 55    
Maximum Humidity 83    
Minimum Humidity 27    
Precipitation  
Precipitation 0.00 in 0.07 in 0.67 in (1923)
Month to date precipitation 0.68 0.73  
Year to date precipitation 1.81 1.94  
Snow  
Snow 0.00 in 0.20 in 5.00 in (1923)
Month to date snowfall 3.5 2.9  
Since 1 July snowfall 24.9 25.0  
Snow Depth 0.00 in    
Sea Level Pressure  
Sea Level Pressure 29.82 in    
Wind  
Wind Speed 10 mph (West)    
Max Wind Speed 18 mph    
Max Gust Speed 24 mph    
Visibility 10 miles    
Events      
T = Trace of Precipitation, MM = Missing Value Source: NWS Daily Summary

Daily Weather History Graph

Daily Weather History Graph

Search for Another Location

Airport or City:

Trip Planner

Search our weather history database for the weather conditions in past years. The results will help you decide how hot, cold, wet, or windy it might be!

Date:

Astronomy

Mar. 15, 2013 Rise Set
Actual Time 7:44 AM CDT 7:40 PM CDT
Civil Twilight 7:17 AM CDT 8:07 PM CDT
Nautical Twilight 6:45 AM CDT 8:39 PM CDT
Astronomical Twilight 6:12 AM CDT 9:12 PM CDT
Moon 9:33 AM CDT (3/15) 11:57 PM CDT (3/15)
Length of Visible Light 12h 50m
Length of Day
11h 55m
Waxing Crescent, 15% of the Moon is Illuminated
Mar 15
Waxing Crescent
Mar 19
First Quarter
Mar 27
Full
Apr 2
Last Quarter
Apr 10
New

Hourly Weather History & Observations

Time (CDT) Temp. Windchill Dew Point Humidity Pressure Visibility Wind Dir Wind Speed Gust Speed Precip Events Conditions
12:53 AM 48.0 °F - 39.0 °F 71% 30.02 in 10.0 mi South 10.4 mph - N/A   Clear
1:53 AM 46.0 °F 41.0 °F 37.0 °F 71% 29.99 in 10.0 mi South 10.4 mph - N/A   Clear
2:53 AM 50.0 °F - 36.0 °F 59% 29.95 in 10.0 mi South 15.0 mph - N/A   Clear
3:53 AM 48.0 °F - 36.0 °F 63% 29.93 in 10.0 mi South 11.5 mph - N/A   Clear
4:53 AM 48.9 °F - 36.0 °F 61% 29.88 in 10.0 mi SSW 12.7 mph - N/A   Clear
5:53 AM 48.9 °F - 37.0 °F 64% 29.84 in 10.0 mi SSW 16.1 mph - N/A   Clear
6:53 AM 48.0 °F - 36.0 °F 63% 29.84 in 10.0 mi SW 15.0 mph - N/A   Clear
7:53 AM 46.9 °F - 36.0 °F 66% 29.83 in 10.0 mi WSW 15.0 mph - N/A   Clear
8:53 AM 46.9 °F - 35.1 °F 63% 29.83 in 10.0 mi West 12.7 mph - N/A   Clear
9:53 AM 53.1 °F - 36.0 °F 52% 29.82 in 10.0 mi West 10.4 mph - N/A   Clear
10:53 AM 59.0 °F - 37.9 °F 46% 29.80 in 10.0 mi West 5.8 mph - N/A   Clear
11:53 AM 68.0 °F - 36.0 °F 31% 29.76 in 10.0 mi Calm Calm - N/A   Clear
12:53 PM 72.0 °F - 36.0 °F 27% 29.77 in 10.0 mi Calm Calm - N/A   Clear
1:53 PM 72.0 °F - 37.0 °F 28% 29.75 in 10.0 mi Variable 3.5 mph - N/A   Clear
2:53 PM 72.0 °F - 36.0 °F 27% 29.71 in 10.0 mi Calm Calm - N/A   Clear
3:53 PM 73.9 °F - 39.0 °F 28% 29.70 in 10.0 mi ENE 6.9 mph - N/A   Clear
4:53 PM 73.0 °F - 41.0 °F 31% 29.69 in 10.0 mi ENE 9.2 mph - N/A   Clear
5:53 PM 71.1 °F - 42.1 °F 35% 29.69 in 10.0 mi ENE 13.8 mph - N/A   Clear
6:53 PM 64.9 °F - 43.0 °F 45% 29.71 in 10.0 mi NE 15.0 mph - N/A   Clear
7:53 PM 55.9 °F - 45.0 °F 67% 29.76 in 10.0 mi NNE 9.2 mph - N/A   Clear
8:53 PM 54.0 °F - 43.0 °F 66% 29.81 in 10.0 mi North 12.7 mph - N/A   Clear
9:53 PM 48.9 °F - 41.0 °F 74% 29.85 in 10.0 mi NNE 12.7 mph - N/A   Clear
10:53 PM 45.0 °F 39.3 °F 39.0 °F 80% 29.87 in 10.0 mi NNE 11.5 mph - N/A   Clear
11:53 PM 43.0 °F 36.4 °F 37.0 °F 80% 29.87 in 10.0 mi NNE 12.7 mph - N/A   Clear